Time,TemperatureF,DewpointF,PressureIn,WindDirection,WindDirectionDegrees,WindSpeedMPH,WindSpeedGustMPH,Humidity,HourlyPrecipIn,Conditions,Clouds,dailyrainin,SoftwareType,DateUTC
2013-06-26 00:11:00,77.0,70.0,-100.00,SSE,160,0.0,0.0,80,-99.99,,,-99.99,,2013-06-26 05:11:00,
2013-06-26 00:22:00,77.0,70.0,-100.00,SSE,160,0.0,0.0,80,-99.99,,,-99.99,,2013-06-26 05:22:00,
2013-06-26 00:52:00,76.0,70.0,-100.00,SSE,160,1.0,4.0,83,-99.99,,,-99.99,,2013-06-26 05:52:00,
2013-06-26 01:22:00,76.0,70.0,-100.00,SSE,160,0.0,0.0,82,-99.99,,,-99.99,,2013-06-26 06:22:00,
2013-06-26 01:43:00,76.0,70.0,-100.00,SSE,155,0.0,0.0,82,-99.99,,,-99.99,,2013-06-26 06:43:00,
2013-06-26 01:53:00,76.0,70.0,-100.00,SSE,155,0.0,0.0,82,-99.99,,,-99.99,,2013-06-26 06:53:00,
2013-06-26 02:11:00,75.0,69.0,-100.00,South,185,0.0,0.0,81,-99.99,,,-99.99,,2013-06-26 07:11:00,
2013-06-26 02:22:00,75.0,69.0,-100.00,South,185,0.0,0.0,81,-99.99,,,-99.99,,2013-06-26 07:22:00,
2013-06-26 02:53:00,75.0,69.0,-100.00,SSE,165,0.0,3.0,82,-99.99,,,-99.99,,2013-06-26 07:53:00,
2013-06-26 03:01:00,75.0,69.0,-100.00,SSE,165,0.0,3.0,82,-99.99,,,-99.99,,2013-06-26 08:01:00,
2013-06-26 03:22:00,75.0,69.0,-100.00,SSE,155,1.0,4.0,83,-99.99,,,-99.99,,2013-06-26 08:22:00,
2013-06-26 03:42:00,74.0,69.0,-100.00,SSE,165,0.0,3.0,84,-99.99,,,-99.99,,2013-06-26 08:42:00,
2013-06-26 03:53:00,74.0,69.0,-100.00,SSE,165,0.0,3.0,84,-99.99,,,-99.99,,2013-06-26 08:53:00,
2013-06-26 04:11:00,74.0,69.0,-100.00,South,175,0.0,3.0,86,-99.99,,,-99.99,,2013-06-26 09:11:00,
2013-06-26 04:22:00,74.0,69.0,-100.00,South,175,0.0,3.0,86,-99.99,,,-99.99,,2013-06-26 09:22:00,
2013-06-26 04:43:00,73.0,69.0,-100.00,South,185,3.0,6.0,86,-99.99,,,-99.99,,2013-06-26 09:43:00,
2013-06-26 04:53:00,73.0,69.0,-100.00,South,185,3.0,6.0,86,-99.99,,,-99.99,,2013-06-26 09:53:00,
2013-06-26 05:12:00,73.0,69.0,-100.00,SSE,160,3.0,6.0,86,-99.99,,,-99.99,,2013-06-26 10:12:00,
2013-06-26 05:22:00,73.0,69.0,-100.00,SSE,160,3.0,6.0,86,-99.99,,,-99.99,,2013-06-26 10:22:00,
2013-06-26 05:43:00,73.0,69.0,-100.00,SSE,160,0.0,2.0,87,-99.99,,,-99.99,,2013-06-26 10:43:00,
2013-06-26 05:53:00,73.0,69.0,-100.00,SSE,160,0.0,2.0,87,-99.99,,,-99.99,,2013-06-26 10:53:00,
2013-06-26 06:11:00,73.0,69.0,-100.00,SSE,155,3.0,6.0,87,-99.99,,,-99.99,,2013-06-26 11:11:00,
2013-06-26 06:22:00,73.0,69.0,-100.00,SSE,155,3.0,6.0,87,-99.99,,,-99.99,,2013-06-26 11:22:00,
2013-06-26 06:44:00,74.0,70.0,-100.00,South,180,4.0,10.0,86,-99.99,,,-99.99,,2013-06-26 11:44:00,
2013-06-26 06:52:00,74.0,70.0,-100.00,South,180,4.0,10.0,86,-99.99,,,-99.99,,2013-06-26 11:52:00,
2013-06-26 07:12:00,75.0,70.0,-100.00,SSE,160,2.0,8.0,85,-99.99,,,-99.99,,2013-06-26 12:12:00,
2013-06-26 07:22:00,75.0,70.0,-100.00,SSE,160,2.0,8.0,85,-99.99,,,-99.99,,2013-06-26 12:22:00,
2013-06-26 07:42:00,75.0,70.0,-100.00,SSE,160,3.0,6.0,84,-99.99,,,-99.99,,2013-06-26 12:42:00,
2013-06-26 07:52:00,75.0,70.0,-100.00,SSE,160,3.0,6.0,84,-99.99,,,-99.99,,2013-06-26 12:52:00,
2013-06-26 08:22:00,76.0,71.0,-100.00,SSE,160,2.0,8.0,83,-99.99,,,-99.99,,2013-06-26 13:22:00,
2013-06-26 08:42:00,77.0,71.0,-100.00,South,190,4.0,9.0,81,-99.99,,,-99.99,,2013-06-26 13:42:00,
2013-06-26 08:53:00,77.0,71.0,-100.00,South,190,4.0,9.0,81,-99.99,,,-99.99,,2013-06-26 13:53:00,
2013-06-26 09:12:00,77.0,71.0,-100.00,South,185,3.0,9.0,82,-99.99,,,-99.99,,2013-06-26 14:12:00,
2013-06-26 09:24:00,77.0,71.0,-100.00,South,185,3.0,9.0,82,-99.99,,,-99.99,,2013-06-26 14:24:00,
2013-06-26 09:42:00,76.0,71.0,-100.00,South,180,4.0,9.0,83,-99.99,,,-99.99,,2013-06-26 14:42:00,
2013-06-26 09:53:00,76.0,71.0,-100.00,South,180,4.0,9.0,83,-99.99,,,-99.99,,2013-06-26 14:53:00,
2013-06-26 10:22:00,76.0,72.0,-100.00,South,180,2.0,8.0,87,-99.99,,,-99.99,,2013-06-26 15:22:00,
2013-06-26 10:53:00,75.0,72.0,-100.00,South,190,6.0,10.0,90,-99.99,,,-99.99,,2013-06-26 15:53:00,
2013-06-26 11:11:00,76.0,73.0,-100.00,SSE,155,3.0,9.0,90,-99.99,,,-99.99,,2013-06-26 16:11:00,
2013-06-26 11:22:00,76.0,73.0,-100.00,SSE,155,3.0,9.0,90,-99.99,,,-99.99,,2013-06-26 16:22:00,
2013-06-26 11:43:00,78.0,74.0,-100.00,South,185,3.0,10.0,90,-99.99,,,-99.99,,2013-06-26 16:43:00,
2013-06-26 11:52:00,78.0,74.0,-100.00,South,185,3.0,10.0,90,-99.99,,,-99.99,,2013-06-26 16:52:00,
2013-06-26 12:23:00,80.0,74.0,-100.00,South,180,3.0,9.0,82,-99.99,,,-99.99,,2013-06-26 17:23:00,
2013-06-26 12:43:00,83.0,75.0,-100.00,South,175,2.0,10.0,76,-99.99,,,-99.99,,2013-06-26 17:43:00,
2013-06-26 12:52:00,83.0,75.0,-100.00,South,175,2.0,10.0,76,-99.99,,,-99.99,,2013-06-26 17:52:00,
2013-06-26 13:22:00,84.0,74.0,-100.00,South,185,6.0,14.0,71,-99.99,,,-99.99,,2013-06-26 18:22:00,
2013-06-26 13:43:00,86.0,73.0,-100.00,SSW,210,9.0,17.0,66,-99.99,,,-99.99,,2013-06-26 18:43:00,
2013-06-26 13:52:00,86.0,73.0,-100.00,SSW,210,9.0,17.0,66,-99.99,,,-99.99,,2013-06-26 18:52:00,
2013-06-26 14:22:00,86.0,73.0,-100.00,SSW,205,1.0,9.0,64,-99.99,,,-99.99,,2013-06-26 19:22:00,
2013-06-26 14:33:00,86.0,73.0,-100.00,SSW,205,1.0,9.0,64,-99.99,,,-99.99,,2013-06-26 19:33:00,
2013-06-26 14:42:00,88.0,74.0,-100.00,SW,225,4.0,18.0,63,-99.99,,,-99.99,,2013-06-26 19:42:00,
2013-06-26 14:52:00,88.0,74.0,-100.00,SW,225,4.0,18.0,63,-99.99,,,-99.99,,2013-06-26 19:52:00,
2013-06-26 15:01:00,88.0,74.0,-100.00,SW,225,4.0,18.0,63,-99.99,,,-99.99,,2013-06-26 20:01:00,
2013-06-26 15:22:00,88.0,72.0,-100.00,SSW,210,4.0,14.0,59,-99.99,,,-99.99,,2013-06-26 20:22:00,
2013-06-26 15:33:00,88.0,72.0,-100.00,SSW,195,4.0,16.0,58,-99.99,,,-99.99,,2013-06-26 20:33:00,
2013-06-26 15:43:00,88.0,72.0,-100.00,South,190,8.0,16.0,59,-99.99,,,-99.99,,2013-06-26 20:43:00,
2013-06-26 15:52:00,88.0,72.0,-100.00,South,190,8.0,16.0,59,-99.99,,,-99.99,,2013-06-26 20:52:00,
2013-06-26 16:02:00,89.0,72.0,-100.00,SSW,205,4.0,14.0,58,-99.99,,,-99.99,,2013-06-26 21:02:00,
2013-06-26 16:11:00,89.0,72.0,-100.00,South,175,6.0,18.0,59,-99.99,,,-99.99,,2013-06-26 21:11:00,
2013-06-26 16:23:00,89.0,72.0,-100.00,South,175,6.0,18.0,59,-99.99,,,-99.99,,2013-06-26 21:23:00,
2013-06-26 16:43:00,90.0,72.0,-100.00,SSW,205,9.0,21.0,57,-99.99,,,-99.99,,2013-06-26 21:43:00,
2013-06-26 16:52:00,90.0,72.0,-100.00,SSW,205,9.0,21.0,57,-99.99,,,-99.99,,2013-06-26 21:52:00,
2013-06-26 17:11:00,90.0,72.0,-100.00,SSW,195,3.0,10.0,56,-99.99,,,-99.99,,2013-06-26 22:11:00,
2013-06-26 17:22:00,90.0,72.0,-100.00,SSW,195,3.0,10.0,56,-99.99,,,-99.99,,2013-06-26 22:22:00,
2013-06-26 17:43:00,91.0,73.0,-100.00,SSW,205,0.0,0.0,56,-99.99,,,-99.99,,2013-06-26 22:43:00,
2013-06-26 17:52:00,91.0,73.0,-100.00,SSW,205,0.0,0.0,56,-99.99,,,-99.99,,2013-06-26 22:52:00,
2013-06-26 18:22:00,90.0,73.0,-100.00,SSW,195,6.0,12.0,57,-99.99,,,-99.99,,2013-06-26 23:22:00,
2013-06-26 18:43:00,88.0,73.0,-100.00,South,190,3.0,10.0,60,-99.99,,,-99.99,,2013-06-26 23:43:00,
2013-06-26 18:53:00,88.0,73.0,-100.00,South,190,3.0,10.0,60,-99.99,,,-99.99,,2013-06-26 23:53:00,
2013-06-26 19:01:00,87.0,73.0,-100.00,SSW,200,2.0,10.0,63,-99.99,,,-99.99,,2013-06-27 00:01:00,
2013-06-26 19:12:00,86.0,73.0,-100.00,SSW,210,1.0,9.0,66,-99.99,,,-99.99,,2013-06-27 00:12:00,
2013-06-26 19:22:00,86.0,73.0,-100.00,SSW,210,1.0,9.0,66,-99.99,,,-99.99,,2013-06-27 00:22:00,
2013-06-26 19:33:00,86.0,73.0,-100.00,SSW,210,1.0,9.0,66,-99.99,,,-99.99,,2013-06-27 00:33:00,
2013-06-26 19:53:00,85.0,73.0,-100.00,SW,230,0.0,6.0,69,-99.99,,,-99.99,,2013-06-27 00:53:00,
2013-06-26 20:11:00,73.0,71.0,-100.00,WNW,300,21.0,25.0,91,-99.99,,,-99.99,,2013-06-27 01:11:00,
2013-06-26 20:21:00,73.0,71.0,-100.00,WNW,300,21.0,25.0,91,-99.99,,,-99.99,,2013-06-27 01:21:00,
2013-06-26 20:43:00,73.0,70.0,-100.00,SSW,210,8.0,14.0,91,-99.99,,,-99.99,,2013-06-27 01:43:00,
2013-06-26 20:53:00,73.0,70.0,-100.00,SSW,210,8.0,14.0,91,-99.99,,,-99.99,,2013-06-27 01:53:00,
2013-06-26 21:11:00,72.0,69.0,-100.00,SSW,195,0.0,6.0,90,-99.99,,,-99.99,,2013-06-27 02:11:00,
2013-06-26 21:22:00,72.0,69.0,-100.00,SSW,195,0.0,6.0,90,-99.99,,,-99.99,,2013-06-27 02:22:00,
2013-06-26 21:42:00,73.0,70.0,-100.00,North,0,0.0,4.0,90,-99.99,,,-99.99,,2013-06-27 02:42:00,
2013-06-26 21:52:00,73.0,70.0,-100.00,North,0,0.0,4.0,90,-99.99,,,-99.99,,2013-06-27 02:52:00,
2013-06-26 22:11:00,74.0,71.0,-100.00,NNE,15,4.0,6.0,89,-99.99,,,-99.99,,2013-06-27 03:11:00,
2013-06-26 22:21:00,74.0,71.0,-100.00,NNE,15,4.0,6.0,89,-99.99,,,-99.99,,2013-06-27 03:21:00,
2013-06-26 22:52:00,74.0,71.0,-100.00,NNE,20,0.0,3.0,90,-99.99,,,-99.99,,2013-06-27 03:52:00,
2013-06-26 23:11:00,74.0,71.0,-100.00,WSW,245,0.0,0.0,91,-99.99,,,-99.99,,2013-06-27 04:11:00,
2013-06-26 23:22:00,74.0,71.0,-100.00,WSW,245,0.0,0.0,91,-99.99,,,-99.99,,2013-06-27 04:22:00,
2013-06-26 23:42:00,75.0,72.0,-100.00,East,100,0.0,3.0,91,-99.99,,,-99.99,,2013-06-27 04:42:00,
2013-06-26 23:53:00,75.0,72.0,-100.00,East,100,0.0,3.0,91,-99.99,,,-99.99,,2013-06-27 04:53:00,